DeLand, FL

4:44 AM EST on November 12, 2019 (GMT -0500)
De Land Municipal-Taylor

Weather History for KDED - September, 2019

Change the Weather History Date:

Tuesday, September 3, 2019

  Actual Average Record
Temperature  
Mean Temperature 78 °F -  
Max Temperature 84 °F 89 °F 91 °F (2015)
Min Temperature 73 °F 70 °F 71 °F (2014)
Cooling Degree Days 14    
Growing Degree Days 28 (Base 50)    
Moisture  
Dew Point 74 °F    
Average Humidity 89    
Maximum Humidity 100    
Minimum Humidity 70    
Precipitation  
Precipitation 2.63 in - - ()
Sea Level Pressure  
Sea Level Pressure 29.78 in    
Wind  
Wind Speed 10 mph (NNE)    
Max Wind Speed 21 mph    
Max Gust Speed 34 mph    
Visibility 9 miles    
Events Rain , Thunderstorm    
Averages and records for this station are not official NWS values.
T = Trace of Precipitation, MM = Missing Value Source: NWS Daily Summary

Daily Weather History Graph

Daily Weather History Graph

Search for Another Location

Airport or City:

Astronomy

Sep. 03, 2019 Rise Set
Actual Time 7:03 AM EDT 7:44 PM EDT
Civil Twilight 6:39 AM EDT 8:08 PM EDT
Nautical Twilight 6:11 AM EDT 8:37 PM EDT
Astronomical Twilight 5:42 AM EDT 9:05 PM EDT
Moon 11:33 AM EDT (9/3) 11:04 PM EDT (9/3)
Length of Visible Light 13h 29m
Length of Day
12h 40m
Waxing Crescent, 24% of the Moon is Illuminated
Sep 3
Waxing Crescent
Sep 5
First Quarter
Sep 14
Full
Sep 21
Last Quarter
Sep 28
New

Hourly Weather History & Observations

Time (EDT) Temp. Heat Index Dew Point Humidity Pressure Visibility Wind Dir Wind Speed Gust Speed Precip Events Conditions
12:15 AM 78.8 °F - 75.2 °F 89% 29.83 in 10.0 mi North 6.9 mph - N/A   Mostly Cloudy
12:35 AM 78.8 °F - 75.2 °F 89% 29.82 in 10.0 mi NNE 8.1 mph - N/A   Scattered Clouds
12:55 AM 80.6 °F 86.2 °F 75.2 °F 84% 29.82 in 10.0 mi NNE 6.9 mph - N/A   Scattered Clouds
1:15 AM 78.8 °F - 75.2 °F 89% 29.81 in 7.0 mi NE 9.2 mph 17.3 mph N/A Rain Light Rain
1:35 AM 77.0 °F - 75.2 °F 94% 29.80 in 10.0 mi NNE 6.9 mph - N/A   Mostly Cloudy
1:55 AM 77.0 °F - 73.4 °F 89% 29.80 in 10.0 mi North 5.8 mph - N/A   Scattered Clouds
2:15 AM 77.0 °F - 75.2 °F 94% 29.80 in 10.0 mi North 6.9 mph - N/A   Clear
2:35 AM 77.0 °F - 75.2 °F 94% 29.79 in 10.0 mi North 8.1 mph - N/A   Clear
2:55 AM 77.0 °F - 75.2 °F 94% 29.79 in 10.0 mi North 8.1 mph - N/A   Clear
3:15 AM 77.0 °F - 75.2 °F 94% 29.78 in 10.0 mi North 9.2 mph - N/A   Clear
3:55 AM 77.0 °F - 75.2 °F 94% 29.78 in 10.0 mi North 8.1 mph - N/A   Scattered Clouds
4:15 AM 77.0 °F - 75.2 °F 94% 29.78 in 10.0 mi North 10.4 mph - N/A   Scattered Clouds
4:35 AM 77.0 °F - 73.4 °F 89% 29.77 in 10.0 mi NNE 8.1 mph - N/A   Scattered Clouds
4:55 AM 77.0 °F - 73.4 °F 89% 29.77 in 10.0 mi North 8.1 mph - N/A   Clear
5:15 AM 75.2 °F - 73.4 °F 94% 29.77 in 10.0 mi North 6.9 mph - N/A   Clear
5:35 AM 75.2 °F - 73.4 °F 94% 29.77 in 10.0 mi North 6.9 mph - N/A   Scattered Clouds
5:55 AM 75.2 °F - 73.4 °F 94% 29.76 in 10.0 mi North 8.1 mph - N/A   Scattered Clouds
6:15 AM 77.0 °F - 75.2 °F 94% 29.76 in 10.0 mi North 6.9 mph - N/A   Clear
6:35 AM 77.0 °F - 75.2 °F 94% 29.77 in 10.0 mi North 6.9 mph - N/A   Clear
6:55 AM 77.0 °F - 75.2 °F 94% 29.78 in 10.0 mi North 8.1 mph - N/A   Scattered Clouds
7:15 AM 77.0 °F - 75.2 °F 94% 29.78 in 10.0 mi NNE 6.9 mph - N/A   Mostly Cloudy
7:35 AM 78.8 °F - 75.2 °F 89% 29.79 in 10.0 mi NNE 11.5 mph - N/A   Overcast
7:55 AM 78.8 °F - 75.2 °F 89% 29.79 in 10.0 mi NNE 10.4 mph - N/A   Scattered Clouds
8:15 AM 78.8 °F - 75.2 °F 89% 29.80 in 10.0 mi North 10.4 mph - N/A   Scattered Clouds
8:35 AM 78.8 °F - 75.2 °F 89% 29.81 in 10.0 mi NNE 10.4 mph - N/A   Mostly Cloudy
8:55 AM 77.0 °F - 73.4 °F 89% 29.82 in 10.0 mi NE 13.8 mph 21.9 mph 0.03 in Rain Light Rain
9:15 AM 77.0 °F - 73.4 °F 89% 29.82 in 10.0 mi NE 10.4 mph - N/A Rain Rain
9:35 AM 77.0 °F - 75.2 °F 94% 29.81 in 10.0 mi NNE 9.2 mph - N/A   Light Drizzle
10:15 AM 80.6 °F 87.1 °F 77.0 °F 89% 29.82 in 10.0 mi NNE 15.0 mph 25.3 mph N/A   Scattered Clouds
10:35 AM 80.6 °F 86.2 °F 75.2 °F 84% 29.82 in 10.0 mi NE 15.0 mph 23.0 mph N/A   Mostly Cloudy
10:55 AM 82.4 °F 88.2 °F 73.4 °F 74% 29.83 in 10.0 mi NE 20.7 mph 26.5 mph N/A   Mostly Cloudy
11:15 AM 84.2 °F 92.3 °F 75.2 °F 74% 29.82 in 10.0 mi NNE 18.4 mph 24.2 mph N/A   Scattered Clouds
11:35 AM 84.2 °F 90.9 °F 73.4 °F 70% 29.82 in 10.0 mi ENE 12.7 mph 28.8 mph N/A   Scattered Clouds
11:55 AM 77.0 °F - 75.2 °F 94% 29.83 in 5.0 mi NE 13.8 mph 20.7 mph 0.02 in Rain Light Rain
12:15 PM 77.0 °F - 75.2 °F 94% 29.82 in 10.0 mi NE 10.4 mph 17.3 mph 0.01 in Rain Rain
12:35 PM 77.0 °F - 75.2 °F 94% 29.82 in 10.0 mi NNE 8.1 mph - 0.01 in   Scattered Clouds
12:55 PM 77.0 °F - 73.4 °F 89% 29.82 in 10.0 mi NE 15.0 mph - 0.01 in   Mostly Cloudy
1:15 PM 78.8 °F - 75.2 °F 89% 29.81 in 10.0 mi NE 10.4 mph - N/A   Overcast
1:35 PM 75.2 °F - 73.4 °F 94% 29.81 in 4.0 mi NE 12.7 mph - 0.10 in Rain Rain
1:55 PM 75.2 °F - 73.4 °F 94% 29.80 in 5.0 mi NNE 9.2 mph - 0.14 in Rain Rain
2:15 PM 75.2 °F - 73.4 °F 94% 29.79 in 10.0 mi North 9.2 mph 17.3 mph 0.01 in Rain , Thunderstorm Light Thunderstorms and Rain
2:35 PM 77.0 °F - 73.4 °F 89% 29.79 in 10.0 mi North 11.5 mph - 0.01 in Thunderstorm Scattered Clouds
2:55 PM 78.8 °F - 75.2 °F 89% 29.79 in 10.0 mi North 13.8 mph - 0.01 in   Clear
3:15 PM 77.0 °F - 73.4 °F 89% 29.78 in 10.0 mi North 10.4 mph - N/A   Clear
3:35 PM 78.8 °F - 75.2 °F 89% 29.77 in 10.0 mi North 13.8 mph - N/A   Scattered Clouds
3:55 PM 80.6 °F 87.1 °F 77.0 °F 89% 29.75 in 10.0 mi North 13.8 mph - N/A   Scattered Clouds
4:15 PM 82.4 °F 89.5 °F 75.2 °F 79% 29.75 in 10.0 mi North 13.8 mph 26.5 mph 0.01 in   Mostly Cloudy
4:35 PM 82.4 °F 89.5 °F 75.2 °F 79% 29.74 in 10.0 mi North 13.8 mph 20.7 mph 0.01 in   Mostly Cloudy
4:55 PM 82.4 °F 89.5 °F 75.2 °F 79% 29.75 in 10.0 mi North 12.7 mph - 0.01 in   Scattered Clouds
5:15 PM 82.4 °F 89.5 °F 75.2 °F 79% 29.75 in 10.0 mi North 13.8 mph 27.6 mph N/A   Mostly Cloudy
5:35 PM 82.4 °F 89.5 °F 75.2 °F 79% 29.74 in 10.0 mi NNW 11.5 mph 23.0 mph N/A   Overcast
5:55 PM 82.4 °F 89.5 °F 75.2 °F 79% 29.74 in 10.0 mi North 17.3 mph - N/A   Overcast
6:15 PM 82.4 °F 88.2 °F 73.4 °F 74% 29.74 in 10.0 mi North 15.0 mph 25.3 mph N/A   Mostly Cloudy
6:35 PM 82.4 °F 88.2 °F 73.4 °F 74% 29.74 in 10.0 mi North 16.1 mph 25.3 mph N/A   Scattered Clouds
7:15 PM 78.8 °F - 75.2 °F 89% 29.75 in 5.0 mi North 8.1 mph - 0.03 in Rain Heavy Rain
7:35 PM 78.8 °F - 75.2 °F 89% 29.74 in 10.0 mi North 16.1 mph 21.9 mph 0.03 in   Mostly Cloudy
7:55 PM 78.8 °F - 75.2 °F 89% 29.74 in 10.0 mi North 12.7 mph 20.7 mph 0.03 in   Scattered Clouds
8:15 PM 78.8 °F - 75.2 °F 89% 29.73 in 10.0 mi NNW 13.8 mph - N/A   Mostly Cloudy
8:35 PM 77.0 °F - 75.2 °F 94% 29.75 in 2.5 mi NE 16.1 mph 34.5 mph 0.35 in Rain Heavy Rain
8:55 PM 75.2 °F - 73.4 °F 94% 29.77 in 2.0 mi NNE 18.4 mph 33.4 mph 0.89 in Rain , Thunderstorm Heavy Thunderstorms and Rain
9:15 PM 73.4 °F - 71.6 °F 94% 29.76 in 1.5 mi NE 20.7 mph 31.1 mph 0.82 in Rain , Thunderstorm Heavy Thunderstorms and Rain
9:35 PM 73.4 °F - 73.4 °F 100% 29.76 in 3.5 mi NNE 17.3 mph 23.0 mph 1.28 in Rain Heavy Rain
9:55 PM 75.2 °F - 73.4 °F 94% 29.75 in 10.0 mi North 13.8 mph 20.7 mph 1.33 in Rain Rain
10:15 PM 75.2 °F - 73.4 °F 94% 29.75 in 10.0 mi North 16.1 mph 23.0 mph 0.06 in Rain Rain
10:35 PM 75.2 °F - 73.4 °F 94% 29.73 in 10.0 mi North 19.6 mph 27.6 mph 0.07 in Rain Light Rain
10:55 PM 75.2 °F - 73.4 °F 94% 29.74 in 10.0 mi North 15.0 mph - 0.07 in   Scattered Clouds
11:15 PM 75.2 °F - 73.4 °F 94% 29.73 in 5.0 mi North 16.1 mph 25.3 mph 0.07 in Rain Rain
11:35 PM 75.2 °F - 73.4 °F 94% 29.71 in 10.0 mi NNW 12.7 mph 20.7 mph 0.09 in Rain Light Rain
11:55 PM 75.2 °F - 73.4 °F 94% 29.71 in 10.0 mi NNW 16.1 mph - 0.09 in   Mostly Cloudy